Regional Weather Roundup
Issued by NWS

Home | Current Version | Previous Version | Graphics & Text | Print | Product List | Glossary On
Versions: 1 2 3 4 5 6 7 8 9 10 11 12 13 14 15 16 17 18 19 20 21 22 23 24 25 26 27 28 29 30 31 32 33 34 35 36 37 38 39 40 41 42 43 44 45 46 47 48 49 50
000
ASUS45 KCYS 172010
RWRWY

WYOMING REGIONAL WEATHER ROUNDUP
NATIONAL WEATHER SERVICE CHEYENNE WY
200 PM MDT WED SEP 17 2014

NOTE:  "FAIR" INDICATES FEW OR NO CLOUDS BELOW 12,000 FEET
WITH NO SIGNIFICANT WEATHER AND/OR OBSTRUCTIONS TO VISIBILITY.

WYZ001-172100-
YELLOWSTONE NATIONAL PARK

CITY           SKY/WX    TMP DP  RH WIND       PRES   REMARKS
LK YELLOWSTONE   N/A     64  45  49 E5        30.22F
W YELLOWSTONE  NOT AVBL

$$
WYZ002>013-054>058-071-098>099-172100-
NORTHERN WYOMING

CITY           SKY/WX    TMP DP  RH WIND       PRES   REMARKS
JACKSON        SUNNY     73  45  35 SW3       30.13F
CODY           SUNNY     81  45  28 NE8       29.98F
GREYBULL       SUNNY     81  47  30 SE6       29.94F
WORLAND        SUNNY     81  48  31 VRB3      29.96F
SHERIDAN       SUNNY     83  46  27 CALM      29.94F
BUFFALO        LGT RAIN  79  41  25 CALM      30.01F
GILLETTE       SUNNY     82  41  23 MISG      29.96F
HULETT         FAIR      81  39  22 MISG      29.98
NEWCASTLE      FAIR      81  32  17 MISG      29.98

$$
WYZ014>020-022>026-101>103-172100-
CENTRAL WYOMING

CITY           SKY/WX    TMP DP  RH WIND       PRES   REMARKS
BIG PINEY      SUNNY     74  41  30 VRB3      30.20F
PINEDALE       PTCLDY    72  37  28 N5        30.21S
DUBOIS         FAIR      73  32  21 NW12G23   30.14F
LANDER         PTSUNNY   77  44  30 SE3       30.03F
RIVERTON       MOSUNNY   80  39  23 SW8       30.05F
CASPER         MOSUNNY   80  36  20 W21G33    30.05F
DOUGLAS        MOSUNNY   83  41  22 W10       30.02F

$$
WYZ021-027>030-104>119-172100-
SOUTHERN WYOMING

CITY           SKY/WX    TMP DP  RH WIND       PRES   REMARKS
EVANSTON       SUNNY     77  40  26 E18       30.18F
KEMMERER       CLEAR     73  36  25 SE9       30.22F
FORT BRIDGER   FAIR      76  40  27 E6        30.23F
ROCK SPRINGS   SUNNY     77  34  21 NW6       30.17F
DIXON          FAIR      82  37  19 SW8       30.17F
RAWLINS        PTSUNNY   76  38  25 N20G29    30.19F
SARATOGA       MOCLDY    73  41  31 N8        30.20F
LARAMIE        CLOUDY    70  40  33 N18G29    30.19S
CHEYENNE       MOSUNNY   86  26  11 W9        30.09F
TORRINGTON     SUNNY     83  39  21 S5        29.97F
PINE BLUFFS    FAIR      84  36  17 CALM      30.03F

$$


USA.gov is the U.S. government's official web portal to all federal, state and local government web resources and services.